,,,PA_Meas_PMT16A,,PR_Meas_QMR101_102,,RH_Meas_QMH101,,SR_Meas_QMS101,,TA_Meas_QMH101,,GenWind,,GenWind,
date,time,status,PA,status,PR,status,RH,status,SR,status,TA,status,DirAvg,status,SpdAvg,
2009-08-09, 00:00:04,VALID,999.562,VALID,0,VALID,69.9865,VALID,0,VALID,25.7507,VALID,161,VALID,1.9125,
2009-08-09, 00:01:04,VALID,999.52,VALID,0,VALID,69.7729,VALID,0,VALID,25.7312,VALID,167,VALID,2.02891,
2009-08-09, 00:02:04,VALID,999.506,VALID,0,VALID,69.7271,VALID,0,VALID,25.7507,VALID,177,VALID,2.09766,
2009-08-09, 00:03:04,VALID,999.474,VALID,0,VALID,69.4143,VALID,0,VALID,25.7507,VALID,159,VALID,1.95664,
2009-08-09, 00:04:04,VALID,999.489,VALID,0,VALID,69.5135,VALID,0,VALID,25.7702,VALID,170,VALID,2.87305,
2009-08-09, 00:05:04,VALID,999.507,VALID,0,VALID,69.5364,VALID,0,VALID,25.7897,VALID,159,VALID,2.67383,
2009-08-09, 00:06:04,VALID,999.487,VALID,0,VALID,69.4753,VALID,0,VALID,25.7897,VALID,178,VALID,2.73633,
2009-08-09, 00:07:04,VALID,999.475,VALID,0,VALID,69.1244,VALID,0,VALID,25.8288,VALID,170,VALID,2.88008,
2009-08-09, 00:08:04,VALID,999.501,VALID,0,VALID,68.6437,VALID,0,VALID,25.8679,VALID,168,VALID,3.29102,
2009-08-09, 00:09:04,VALID,999.45,VALID,0,VALID,68.6818,VALID,0,VALID,25.9069,VALID,180,VALID,2.57266,
2009-08-09, 00:10:04,VALID,999.462,VALID,0,VALID,68.163,VALID,0,VALID,25.9264,VALID,173,VALID,3.32734,
2009-08-09, 00:11:04,VALID,999.506,VALID,0,VALID,68.5216,VALID,0,VALID,25.9675,VALID,168,VALID,2.95234,
2009-08-09, 00:12:04,VALID,999.501,VALID,0,VALID,68.8115,VALID,0,VALID,25.9284,VALID,167,VALID,2.40078,
2009-08-09, 00:13:04,VALID,999.489,VALID,0,VALID,68.8726,VALID,0,VALID,25.8874,VALID,174,VALID,2.47227,
2009-08-09, 00:14:04,VALID,999.482,VALID,0,VALID,68.7658,VALID,0,VALID,25.8679,VALID,174,VALID,2.49531,
2009-08-09, 00:15:04,VALID,999.452,VALID,0,VALID,68.9412,VALID,0,VALID,25.8698,VALID,163,VALID,2.15703,
2009-08-09, 00:16:04,VALID,999.421,VALID,0,VALID,68.9412,VALID,0,VALID,25.8288,VALID,149,VALID,2.27539,
2009-08-09, 00:17:04,VALID,999.43,VALID,0,VALID,69.4677,VALID,0,VALID,25.7702,VALID,170,VALID,1.90391,
2009-08-09, 00:18:04,VALID,999.357,VALID,0,VALID,69.3075,VALID,0,VALID,25.7116,VALID,165,VALID,2.35195,
2009-08-09, 00:19:04,VALID,999.364,VALID,0,VALID,69.2693,VALID,0,VALID,25.6921,VALID,155,VALID,2.62539,
2009-08-09, 00:20:04,VALID,999.35,VALID,0,VALID,69.4219,VALID,0,VALID,25.6921,VALID,161,VALID,2.77031,
2009-08-09, 00:21:04,VALID,999.324,VALID,0,VALID,69.5592,VALID,0,VALID,25.6726,VALID,177,VALID,2.1,
2009-08-09, 00:22:04,VALID,999.326,VALID,0,VALID,69.5516,VALID,0,VALID,25.6746,VALID,164,VALID,2.49062,
2009-08-09, 00:23:04,VALID,999.317,VALID,0,VALID,69.8187,VALID,0,VALID,25.6746,VALID,163,VALID,2.21133,
2009-08-09, 00:24:04,VALID,999.318,VALID,0,VALID,69.4372,VALID,0,VALID,25.6336,VALID,161,VALID,2.68477,
2009-08-09, 00:25:04,VALID,999.291,VALID,0,VALID,69.8034,VALID,0,VALID,25.655,VALID,164,VALID,1.84023,
2009-08-09, 00:26:04,VALID,999.288,VALID,0,VALID,69.7729,VALID,0,VALID,25.616,VALID,159,VALID,2.31836,
2009-08-09, 00:27:04,VALID,999.288,VALID,0,VALID,69.7271,VALID,0.112286,VALID,25.573,VALID,164,VALID,2.42578,
2009-08-09, 00:28:04,VALID,999.259,VALID,0,VALID,70.0094,VALID,0,VALID,25.5945,VALID,153,VALID,1.71172,
2009-08-09, 00:29:04,VALID,999.257,VALID,0,VALID,70.1849,VALID,0,VALID,25.534,VALID,152,VALID,2.14336,
2009-08-09, 00:30:04,VALID,999.207,VALID,0,VALID,69.7118,VALID,0.112286,VALID,25.5535,VALID,161,VALID,2.70547,
2009-08-09, 00:31:04,VALID,999.181,VALID,0,VALID,68.8268,VALID,0,VALID,25.5945,VALID,139,VALID,2.90234,
2009-08-09, 00:32:04,VALID,999.174,VALID,0,VALID,69.7576,VALID,0,VALID,25.5535,VALID,140,VALID,2.30273,
2009-08-09, 00:33:04,VALID,999.093,VALID,0,VALID,69.7271,VALID,0,VALID,25.5164,VALID,148,VALID,2.62305,
2009-08-09, 00:34:04,VALID,999.062,VALID,0,VALID,69.5974,VALID,0,VALID,25.5164,VALID,143,VALID,2.17734,
2009-08-09, 00:35:04,VALID,999.013,VALID,0,VALID,69.7424,VALID,0,VALID,25.4754,VALID,146,VALID,2.32539,
2009-08-09, 00:36:04,VALID,999.003,VALID,0,VALID,69.5211,VALID,0,VALID,25.4969,VALID,147,VALID,2.57148,
2009-08-09, 00:37:04,VALID,998.953,VALID,0,VALID,69.4829,VALID,0,VALID,25.4578,VALID,139,VALID,2.27852,
2009-08-09, 00:38:04,VALID,998.963,VALID,0,VALID,69.6203,VALID,0,VALID,25.4578,VALID,133,VALID,1.95977,
2009-08-09, 00:39:04,VALID,998.945,VALID,0,VALID,69.3075,VALID,0,VALID,25.4383,VALID,153,VALID,2.56094,
2009-08-09, 00:40:04,VALID,998.93,VALID,0,VALID,69.3838,VALID,0,VALID,25.4578,VALID,150,VALID,2.01133,
2009-08-09, 00:41:04,VALID,998.92,VALID,0,VALID,69.5745,VALID,0,VALID,25.4578,VALID,155,VALID,1.95156,
2009-08-09, 00:42:04,VALID,998.894,VALID,0,VALID,69.75,VALID,0,VALID,25.4383,VALID,168,VALID,2.07891,
2009-08-09, 00:43:04,VALID,998.88,VALID,0,VALID,69.6584,VALID,0,VALID,25.4578,VALID,165,VALID,2.36172,
2009-08-09, 00:44:04,VALID,998.893,VALID,0,VALID,69.7347,VALID,0,VALID,25.4774,VALID,161,VALID,2.10781,
2009-08-09, 00:45:04,VALID,998.896,VALID,0,VALID,69.9789,VALID,0,VALID,25.4774,VALID,165,VALID,2.24805,
2009-08-09, 00:46:04,VALID,998.891,VALID,0,VALID,69.6966,VALID,0,VALID,25.4578,VALID,165,VALID,2.22187,
2009-08-09, 00:47:04,VALID,998.885,VALID,0,VALID,69.9865,VALID,0,VALID,25.4774,VALID,170,VALID,1.95469,
2009-08-09, 00:48:04,VALID,998.878,VALID,0,VALID,69.8263,VALID,0,VALID,25.4364,VALID,167,VALID,2.0332,
2009-08-09, 00:49:04,VALID,998.911,VALID,0,VALID,69.9178,VALID,0,VALID,25.4364,VALID,159,VALID,2.17539,
2009-08-09, 00:50:04,VALID,998.885,VALID,0,VALID,69.9941,VALID,0,VALID,25.4188,VALID,164,VALID,2.09609,
2009-08-09, 00:51:04,VALID,998.898,VALID,0,VALID,70.101,VALID,0,VALID,25.3778,VALID,165,VALID,1.92422,
2009-08-09, 00:52:04,VALID,998.892,VALID,0,VALID,70.101,VALID,0,VALID,25.3797,VALID,175,VALID,2.29492,
2009-08-09, 00:53:04,VALID,998.899,VALID,0,VALID,69.811,VALID,0,VALID,25.4188,VALID,174,VALID,2.39727,
2009-08-09, 00:54:04,VALID,998.845,VALID,0,VALID,69.6661,VALID,0,VALID,25.4578,VALID,168,VALID,1.95898,
2009-08-09, 00:55:04,VALID,998.845,VALID,0,VALID,69.5516,VALID,0,VALID,25.4774,VALID,167,VALID,1.82148,
2009-08-09, 00:56:04,VALID,998.845,VALID,0,VALID,69.7347,VALID,0,VALID,25.4774,VALID,171,VALID,1.90234,
2009-08-09, 00:57:04,VALID,998.813,VALID,0,VALID,69.544,VALID,0,VALID,25.4969,VALID,180,VALID,1.93359,
2009-08-09, 00:58:04,VALID,998.779,VALID,0,VALID,69.1015,VALID,0,VALID,25.5359,VALID,172,VALID,2.20078,
2009-08-09, 00:59:04,VALID,998.774,VALID,0,VALID,69.2312,VALID,0,VALID,25.5145,VALID,164,VALID,2.26641,
2009-08-09, 01:00:04,VALID,998.747,VALID,0,VALID,69.3914,VALID,0,VALID,25.4949,VALID,152,VALID,1.80547,
2009-08-09, 01:01:04,VALID,998.728,VALID,0,VALID,69.5135,VALID,0,VALID,25.4754,VALID,153,VALID,1.69336,
2009-08-09, 01:02:04,VALID,998.697,VALID,0,VALID,69.6966,VALID,0,VALID,25.4383,VALID,158,VALID,1.72852,
2009-08-09, 01:03:04,VALID,998.653,VALID,0,VALID,69.8339,VALID,0,VALID,25.3778,VALID,164,VALID,1.85703,
2009-08-09, 01:04:04,VALID,998.667,VALID,0,VALID,70.1391,VALID,0,VALID,25.3583,VALID,150,VALID,2.05625,
2009-08-09, 01:05:04,VALID,998.59,VALID,0,VALID,70.3985,VALID,0,VALID,25.3193,VALID,144,VALID,1.87539,
2009-08-09, 01:06:04,VALID,998.568,VALID,0,VALID,70.8334,VALID,0,VALID,25.2821,VALID,149,VALID,2.03633,
2009-08-09, 01:07:04,VALID,998.585,VALID,0,VALID,71.1386,VALID,0,VALID,25.2236,VALID,146,VALID,2.10078,
2009-08-09, 01:08:04,VALID,998.525,VALID,0,VALID,71.1157,VALID,0,VALID,25.204,VALID,136,VALID,2.00117,
2009-08-09, 01:09:04,VALID,998.549,VALID,0,VALID,71.0241,VALID,0,VALID,25.1845,VALID,147,VALID,1.70078,
2009-08-09, 01:10:04,VALID,998.54,VALID,0,VALID,71.1157,VALID,0,VALID,25.1845,VALID,151,VALID,1.63008,
2009-08-09, 01:11:04,VALID,998.49,VALID,0,VALID,70.9555,VALID,0,VALID,25.1845,VALID,158,VALID,1.78867,
2009-08-09, 01:12:04,VALID,998.537,VALID,0,VALID,70.8334,VALID,0,VALID,25.1631,VALID,159,VALID,2.10703,
2009-08-09, 01:13:04,VALID,998.518,VALID,0,VALID,70.5969,VALID,0,VALID,25.2021,VALID,151,VALID,1.99219,
2009-08-09, 01:14:04,VALID,998.45,VALID,0,VALID,70.6427,VALID,0,VALID,25.2217,VALID,134,VALID,1.53203,
2009-08-09, 01:15:04,VALID,998.437,VALID,0,VALID,70.3527,VALID,0,VALID,25.2021,VALID,148,VALID,1.62969,
2009-08-09, 01:16:04,VALID,998.423,VALID,0,VALID,70.4977,VALID,0,VALID,25.2217,VALID,156,VALID,1.55664,
2009-08-09, 01:17:04,VALID,998.381,VALID,0,VALID,70.7189,VALID,0,VALID,25.2217,VALID,150,VALID,1.6207,
2009-08-09, 01:18:04,VALID,998.373,VALID,0,VALID,70.6198,VALID,0,VALID,25.2236,VALID,140,VALID,2.01094,
2009-08-09, 01:19:04,VALID,998.302,VALID,0,VALID,70.7724,VALID,0,VALID,25.1826,VALID,132,VALID,1.4832,
2009-08-09, 01:20:04,VALID,998.297,VALID,0,VALID,70.8487,VALID,0,VALID,25.1436,VALID,130,VALID,1.59805,
2009-08-09, 01:21:04,VALID,998.287,VALID,0,VALID,70.7952,VALID,0,VALID,25.1241,VALID,138,VALID,1.68047,
2009-08-09, 01:22:04,VALID,998.319,VALID,0,VALID,70.6884,VALID,0,VALID,25.1455,VALID,146,VALID,1.41641,
2009-08-09, 01:23:04,VALID,998.332,VALID,0,VALID,70.223,VALID,0,VALID,25.1045,VALID,135,VALID,1.79492,
2009-08-09, 01:24:04,VALID,998.291,VALID,0,VALID,68.7734,VALID,0,VALID,25.1241,VALID,143,VALID,1.65078,
2009-08-09, 01:25:04,VALID,998.364,VALID,0,VALID,68.7352,VALID,0,VALID,25.2217,VALID,128,VALID,2.35156,
2009-08-09, 01:26:04,VALID,998.34,VALID,0,VALID,68.9718,VALID,0,VALID,25.2997,VALID,123,VALID,1.40937,
2009-08-09, 01:27:04,VALID,998.355,VALID,0,VALID,68.7276,VALID,0,VALID,25.3193,VALID,134,VALID,1.19766,
2009-08-09, 01:28:04,VALID,998.384,VALID,0,VALID,69.0252,VALID,0,VALID,25.3212,VALID,92,VALID,0.605469,
2009-08-09, 01:29:04,VALID,998.409,VALID,0,VALID,69.2235,VALID,0,VALID,25.2821,VALID,93,VALID,0.323047,
2009-08-09, 01:30:04,VALID,998.372,VALID,0,VALID,69.3761,VALID,0.112286,VALID,25.2236,VALID,94,VALID,0.148828,
2009-08-09, 01:31:04,VALID,998.382,VALID,0,VALID,69.3914,VALID,0,VALID,25.1631,VALID,94,VALID,0.264844,
2009-08-09, 01:32:04,VALID,998.402,VALID,0,VALID,69.338,VALID,0,VALID,25.1455,VALID,120,VALID,0.830859,
2009-08-09, 01:33:04,VALID,998.393,VALID,0,VALID,69.6813,VALID,0,VALID,25.1436,VALID,123,VALID,0.657422,
2009-08-09, 01:34:04,VALID,998.387,VALID,0,VALID,69.8492,VALID,0.112286,VALID,25.1241,VALID,123,VALID,0.468359,
2009-08-09, 01:35:04,VALID,998.386,VALID,0,VALID,69.5745,VALID,0,VALID,25.1241,VALID,123,VALID,0.123047,
2009-08-09, 01:36:04,VALID,998.402,VALID,0,VALID,69.2998,VALID,0.112286,VALID,25.1241,VALID,169,VALID,0.742969,
2009-08-09, 01:37:04,VALID,998.386,VALID,0,VALID,68.3767,VALID,0,VALID,25.1631,VALID,166,VALID,0.602344,
2009-08-09, 01:38:04,VALID,998.388,VALID,0,VALID,68.2241,VALID,0,VALID,25.2217,VALID,148,VALID,0.2875,
2009-08-09, 01:39:04,VALID,998.394,VALID,0,VALID,67.8044,VALID,0,VALID,25.2412,VALID,154,VALID,0.523828,
2009-08-09, 01:40:04,VALID,998.419,VALID,0,VALID,68.2622,VALID,0,VALID,25.3017,VALID,167,VALID,0.466406,
2009-08-09, 01:41:04,VALID,998.424,VALID,0,VALID,68.1325,VALID,0,VALID,25.3017,VALID,146,VALID,0.517187,
2009-08-09, 01:42:04,VALID,998.39,VALID,0,VALID,67.9799,VALID,0,VALID,25.2802,VALID,149,VALID,0.448828,
2009-08-09, 01:43:04,VALID,998.372,VALID,0,VALID,68.3843,VALID,0,VALID,25.2802,VALID,153,VALID,0.373437,
2009-08-09, 01:44:04,VALID,998.344,VALID,0,VALID,68.3538,VALID,0.112286,VALID,25.2412,VALID,153,VALID,0,
2009-08-09, 01:45:04,VALID,998.365,VALID,0,VALID,68.3614,VALID,0,VALID,25.2217,VALID,153,VALID,0.2625,
2009-08-09, 01:46:04,VALID,998.327,VALID,0,VALID,68.7276,VALID,0,VALID,25.1631,VALID,153,VALID,0.391406,
2009-08-09, 01:47:04,VALID,998.309,VALID,0,VALID,68.7352,VALID,0,VALID,25.1241,VALID,153,VALID,0.227734,
2009-08-09, 01:48:04,VALID,998.266,VALID,0,VALID,70.5511,VALID,0,VALID,25.0655,VALID,257,VALID,0.558594,
2009-08-09, 01:49:04,VALID,998.283,VALID,0,VALID,71.4819,VALID,0,VALID,24.9308,VALID,297,VALID,0.875,
2009-08-09, 01:50:04,VALID,998.25,VALID,0,VALID,72.7179,VALID,0,VALID,24.7551,VALID,297,VALID,0.343359,
2009-08-09, 01:51:04,VALID,998.229,VALID,0,VALID,73.8852,VALID,0,VALID,24.6361,VALID,337,VALID,0.621875,
2009-08-09, 01:52:04,VALID,998.237,VALID,0,VALID,74.5719,VALID,0,VALID,24.5209,VALID,337,VALID,0.437109,
2009-08-09, 01:53:04,VALID,998.212,VALID,0,VALID,75.3349,VALID,0,VALID,24.3842,VALID,337,VALID,0.461328,
2009-08-09, 01:54:04,VALID,998.183,VALID,0,VALID,76.0063,VALID,0,VALID,24.2086,VALID,337,VALID,0.239063,
2009-08-09, 01:55:04,VALID,998.172,VALID,0,VALID,76.3649,VALID,0,VALID,24.0506,VALID,337,VALID,0.155078,
2009-08-09, 01:56:04,VALID,998.156,VALID,0,VALID,75.8537,VALID,0,VALID,23.9939,VALID,337,VALID,0.277734,
2009-08-09, 01:57:04,VALID,998.116,VALID,0,VALID,76.9142,VALID,0,VALID,23.914,VALID,337,VALID,0.601953,
2009-08-09, 01:58:04,VALID,998.125,VALID,0,VALID,77.166,VALID,0,VALID,23.875,VALID,337,VALID,0.628125,
2009-08-09, 01:59:04,VALID,998.104,VALID,0,VALID,77.0973,VALID,0,VALID,23.836,VALID,337,VALID,0.736719,
2009-08-09, 02:00:04,VALID,998.104,VALID,0,VALID,76.6624,VALID,0,VALID,23.8573,VALID,337,VALID,0.68125,
2009-08-09, 02:01:04,VALID,998.091,VALID,0,VALID,76.6014,VALID,0,VALID,23.8555,VALID,337,VALID,0.841016,
2009-08-09, 02:02:04,VALID,998.094,VALID,0,VALID,77.166,VALID,0,VALID,23.836,VALID,337,VALID,0.952734,
2009-08-09, 02:03:04,VALID,998.073,VALID,0,VALID,77.8984,VALID,0,VALID,23.7988,VALID,337,VALID,0.682422,
2009-08-09, 02:04:04,VALID,998.095,VALID,0,VALID,78.6232,VALID,0,VALID,23.7012,VALID,337,VALID,0.796094,
2009-08-09, 02:05:04,VALID,998.089,VALID,0,VALID,79.3252,VALID,0,VALID,23.6019,VALID,337,VALID,0.741406,
2009-08-09, 02:06:04,VALID,998.088,VALID,0,VALID,78.9895,VALID,0,VALID,23.5433,VALID,337,VALID,0.451172,
2009-08-09, 02:07:04,VALID,998.111,VALID,0,VALID,78.5393,VALID,0,VALID,23.5646,VALID,337,VALID,0.346875,
2009-08-09, 02:08:04,VALID,998.089,VALID,0,VALID,78.2189,VALID,0,VALID,23.6036,VALID,337,VALID,0.619922,
2009-08-09, 02:09:04,VALID,998.071,VALID,0,VALID,77.6238,VALID,0.112286,VALID,23.6409,VALID,337,VALID,0.526953,
2009-08-09, 02:10:04,VALID,998.094,VALID,0,VALID,77.5475,VALID,0,VALID,23.6817,VALID,337,VALID,0.318359,
2009-08-09, 02:11:04,VALID,998.087,VALID,0,VALID,78.0052,VALID,0,VALID,23.742,VALID,343,VALID,0.520312,
2009-08-09, 02:12:04,VALID,998.056,VALID,0,VALID,77.7306,VALID,0,VALID,23.6994,VALID,85,VALID,0.770312,
2009-08-09, 02:13:04,VALID,998.034,VALID,0,VALID,79.1955,VALID,0.112286,VALID,23.7189,VALID,77,VALID,1.0875,
2009-08-09, 02:14:04,VALID,997.984,VALID,0,VALID,81.1105,VALID,0,VALID,23.7189,VALID,57,VALID,1.69375,
2009-08-09, 02:15:04,VALID,997.982,VALID,0,VALID,82.3083,VALID,0,VALID,23.5823,VALID,52,VALID,1.64883,
2009-08-09, 02:16:04,VALID,997.988,VALID,0,VALID,83.3231,VALID,0,VALID,23.4671,VALID,59,VALID,1.6082,
2009-08-09, 02:17:04,VALID,997.974,VALID,0,VALID,84.1166,VALID,0,VALID,23.35,VALID,55,VALID,1.36563,
2009-08-09, 02:18:04,VALID,998.003,VALID,0,VALID,84.643,VALID,0,VALID,23.2524,VALID,52,VALID,1.08594,
2009-08-09, 02:19:04,VALID,997.965,VALID,0,VALID,84.9177,VALID,0,VALID,23.1744,VALID,50,VALID,0.885156,
2009-08-09, 02:20:04,VALID,997.914,VALID,0,VALID,85.0169,VALID,0,VALID,23.0946,VALID,48,VALID,0.884375,
2009-08-09, 02:21:04,VALID,997.929,VALID,0,VALID,85.1084,VALID,0,VALID,23.0751,VALID,48,VALID,0.623828,
2009-08-09, 02:22:04,VALID,997.868,VALID,0,VALID,85.0855,VALID,0,VALID,23.0361,VALID,48,VALID,0.0875,
2009-08-09, 02:23:04,VALID,997.853,VALID,0,VALID,85.1618,VALID,0,VALID,23.0166,VALID,48,VALID,0,
2009-08-09, 02:24:04,VALID,997.838,VALID,0,VALID,85.2,VALID,0,VALID,22.9971,VALID,48,VALID,0,
2009-08-09, 02:25:04,VALID,997.848,VALID,0,VALID,85.3144,VALID,0.112286,VALID,22.9776,VALID,48,VALID,0.0136719,
2009-08-09, 02:26:04,VALID,997.843,VALID,0,VALID,85.3755,VALID,0,VALID,22.9385,VALID,48,VALID,0.108594,
2009-08-09, 02:27:04,VALID,997.838,VALID,0,VALID,85.467,VALID,0,VALID,22.9208,VALID,48,VALID,0.283984,
2009-08-09, 02:28:04,VALID,997.821,VALID,0,VALID,85.4441,VALID,0,VALID,22.9013,VALID,48,VALID,0.669922,
2009-08-09, 02:29:04,VALID,997.795,VALID,0,VALID,85.3831,VALID,0,VALID,22.9013,VALID,53,VALID,0.726953,
2009-08-09, 02:30:04,VALID,997.804,VALID,0,VALID,85.1847,VALID,0,VALID,22.9013,VALID,77,VALID,0.815234,
2009-08-09, 02:31:04,VALID,997.789,VALID,0,VALID,85.3831,VALID,0,VALID,22.8835,VALID,86,VALID,0.905078,
2009-08-09, 02:32:04,VALID,997.789,VALID,0,VALID,85.3526,VALID,0,VALID,22.903,VALID,86,VALID,1.16172,
2009-08-09, 02:33:04,VALID,997.802,VALID,0,VALID,85.2381,VALID,0,VALID,22.9225,VALID,86,VALID,1.28906,
2009-08-09, 02:34:04,VALID,997.769,VALID,0,VALID,84.994,VALID,0,VALID,22.9013,VALID,86,VALID,1.33633,
2009-08-09, 02:35:04,VALID,997.751,VALID,0,VALID,84.6888,VALID,0,VALID,22.942,VALID,84,VALID,1.48672,
2009-08-09, 02:36:04,VALID,997.749,VALID,0,VALID,84.2997,VALID,0,VALID,22.9208,VALID,83,VALID,1.525,
2009-08-09, 02:37:04,VALID,997.74,VALID,0,VALID,83.8648,VALID,0,VALID,22.942,VALID,82,VALID,1.43828,
2009-08-09, 02:38:04,VALID,997.762,VALID,0,VALID,83.7885,VALID,0,VALID,22.9793,VALID,81,VALID,1.23672,
2009-08-09, 02:39:04,VALID,997.704,VALID,0,VALID,83.6512,VALID,0,VALID,23.0006,VALID,80,VALID,1.12734,
2009-08-09, 02:40:04,VALID,997.714,VALID,0,VALID,83.6283,VALID,0,VALID,22.9988,VALID,75,VALID,0.735547,
2009-08-09, 02:41:04,VALID,997.78,VALID,0,VALID,83.6664,VALID,0,VALID,23.0006,VALID,74,VALID,0.471875,
2009-08-09, 02:42:04,VALID,997.745,VALID,0,VALID,83.7427,VALID,0,VALID,23.0006,VALID,74,VALID,0.178125,
2009-08-09, 02:43:04,VALID,997.778,VALID,0,VALID,83.9258,VALID,0,VALID,22.9615,VALID,347,VALID,0.591406,
2009-08-09, 02:44:04,VALID,997.78,VALID,0,VALID,84.1852,VALID,0,VALID,22.9403,VALID,339,VALID,0.614062,
2009-08-09, 02:45:04,VALID,997.793,VALID,0,VALID,84.4828,VALID,0,VALID,22.9811,VALID,339,VALID,0.601953,
2009-08-09, 02:46:04,VALID,997.776,VALID,0,VALID,84.6812,VALID,0,VALID,22.9615,VALID,339,VALID,0.416406,
2009-08-09, 02:47:04,VALID,997.793,VALID,0,VALID,84.9558,VALID,0,VALID,22.9598,VALID,339,VALID,0.414453,
2009-08-09, 02:48:04,VALID,997.785,VALID,0,VALID,85.0092,VALID,0,VALID,22.9598,VALID,339,VALID,0.248437,
2009-08-09, 02:49:04,VALID,997.766,VALID,0,VALID,85.1694,VALID,0,VALID,22.9598,VALID,339,VALID,0.28125,
2009-08-09, 02:50:04,VALID,997.773,VALID,0,VALID,85.2839,VALID,0,VALID,22.9811,VALID,339,VALID,0.296484,
2009-08-09, 02:51:04,VALID,997.807,VALID,0,VALID,85.2839,VALID,0,VALID,22.9403,VALID,339,VALID,0.238281,
2009-08-09, 02:52:04,VALID,997.839,VALID,0,VALID,85.322,VALID,0,VALID,22.9811,VALID,339,VALID,0.312891,
2009-08-09, 02:53:04,VALID,997.798,VALID,0,VALID,85.2992,VALID,0,VALID,22.9598,VALID,339,VALID,0.201172,
2009-08-09, 02:54:04,VALID,997.806,VALID,0,VALID,85.1618,VALID,0,VALID,22.9598,VALID,339,VALID,0,
2009-08-09, 02:55:04,VALID,997.788,VALID,0,VALID,85.0779,VALID,0,VALID,22.9811,VALID,339,VALID,0,
2009-08-09, 02:56:04,VALID,997.836,VALID,0,VALID,85.1466,VALID,0,VALID,22.9793,VALID,339,VALID,0.147266,
2009-08-09, 02:57:04,VALID,997.801,VALID,0,VALID,85.2229,VALID,0,VALID,22.9598,VALID,339,VALID,0.496484,
2009-08-09, 02:58:04,VALID,997.825,VALID,0,VALID,85.1542,VALID,0,VALID,22.9811,VALID,339,VALID,0.567969,
2009-08-09, 02:59:04,VALID,997.836,VALID,0,VALID,85.1389,VALID,0,VALID,22.9793,VALID,339,VALID,0.725781,
2009-08-09, 03:00:04,VALID,997.809,VALID,0,VALID,85.1008,VALID,0,VALID,22.9793,VALID,339,VALID,0.725391,
2009-08-09, 03:01:04,VALID,997.791,VALID,0,VALID,85.2534,VALID,0,VALID,22.9793,VALID,339,VALID,0.821094,
2009-08-09, 03:02:04,VALID,997.802,VALID,0,VALID,85.467,VALID,0,VALID,23.0006,VALID,339,VALID,0.755469,
2009-08-09, 03:03:04,VALID,997.821,VALID,0,VALID,85.3449,VALID,0,VALID,22.9988,VALID,35,VALID,0.686719,
2009-08-09, 03:04:04,VALID,997.855,VALID,0,VALID,84.8795,VALID,0,VALID,23.0006,VALID,63,VALID,1.03594,
2009-08-09, 03:05:04,VALID,997.852,VALID,0,VALID,85.1771,VALID,0,VALID,22.9811,VALID,68,VALID,1.07695,
2009-08-09, 03:06:04,VALID,997.858,VALID,0,VALID,85.1008,VALID,0,VALID,23.0201,VALID,68,VALID,0.935938,
2009-08-09, 03:07:04,VALID,997.878,VALID,0,VALID,85.0474,VALID,0,VALID,23.0786,VALID,57,VALID,1.15234,
2009-08-09, 03:08:04,VALID,997.902,VALID,0,VALID,84.6888,VALID,0,VALID,23.0981,VALID,57,VALID,1.11719,
2009-08-09, 03:09:04,VALID,997.945,VALID,0,VALID,84.9711,VALID,0,VALID,23.1176,VALID,65,VALID,1.22344,
2009-08-09, 03:10:04,VALID,997.957,VALID,0,VALID,85.0626,VALID,0,VALID,23.1159,VALID,65,VALID,1.44219,
2009-08-09, 03:11:04,VALID,997.96,VALID,0,VALID,84.9558,VALID,0,VALID,23.1159,VALID,65,VALID,1.31328,
2009-08-09, 03:12:04,VALID,997.988,VALID,0,VALID,84.5438,VALID,0,VALID,23.0981,VALID,69,VALID,1.51875,
2009-08-09, 03:13:04,VALID,997.978,VALID,0,VALID,84.1852,VALID,0,VALID,23.0573,VALID,73,VALID,1.40352,
2009-08-09, 03:14:04,VALID,997.986,VALID,0,VALID,84.3912,VALID,0,VALID,23.0573,VALID,78,VALID,1.48867,
2009-08-09, 03:15:04,VALID,997.996,VALID,0,VALID,85.0932,VALID,0,VALID,23.0201,VALID,89,VALID,1.14336,
2009-08-09, 03:16:04,VALID,997.989,VALID,0,VALID,85.1542,VALID,0,VALID,22.9988,VALID,99,VALID,0.945313,
2009-08-09, 03:17:04,VALID,998.013,VALID,0,VALID,85.2915,VALID,0,VALID,22.9811,VALID,101,VALID,1.16797,
2009-08-09, 03:18:04,VALID,998.031,VALID,0,VALID,85.0397,VALID,0,VALID,22.9013,VALID,105,VALID,1.07578,
2009-08-09, 03:19:04,VALID,998.036,VALID,0,VALID,85.0626,VALID,0,VALID,22.8835,VALID,108,VALID,1.19883,
2009-08-09, 03:20:04,VALID,998.083,VALID,0,VALID,85.5128,VALID,0,VALID,22.903,VALID,109,VALID,1.30781,
2009-08-09, 03:21:04,VALID,998.091,VALID,0,VALID,85.7646,VALID,0,VALID,22.8818,VALID,111,VALID,1.06133,
2009-08-09, 03:22:04,VALID,998.088,VALID,0,VALID,85.9248,VALID,0,VALID,22.8835,VALID,102,VALID,1.20508,
2009-08-09, 03:23:05,VALID,998.109,VALID,0,VALID,86.2071,VALID,0,VALID,22.8623,VALID,103,VALID,1.54141,
2009-08-09, 03:24:05,VALID,998.114,VALID,0,VALID,86.3444,VALID,0,VALID,22.8818,VALID,99,VALID,1.69492,
2009-08-09, 03:25:05,VALID,998.087,VALID,0,VALID,86.1155,VALID,0,VALID,22.9013,VALID,102,VALID,1.4957,
2009-08-09, 03:26:05,VALID,998.098,VALID,0,VALID,85.8256,VALID,0,VALID,22.8818,VALID,109,VALID,1.15703,
2009-08-09, 03:27:05,VALID,998.075,VALID,0,VALID,85.8103,VALID,0,VALID,22.8818,VALID,105,VALID,0.855078,
2009-08-09, 03:28:05,VALID,998.053,VALID,0,VALID,85.4823,VALID,0,VALID,22.8835,VALID,111,VALID,0.642578,
2009-08-09, 03:29:05,VALID,998.082,VALID,0,VALID,85.4975,VALID,0,VALID,22.8835,VALID,109,VALID,0.227734,
2009-08-09, 03:30:05,VALID,998.052,VALID,0,VALID,85.5433,VALID,0,VALID,22.8818,VALID,128,VALID,0.353125,
2009-08-09, 03:31:05,VALID,998.049,VALID,0,VALID,85.4517,VALID,0,VALID,22.9013,VALID,225,VALID,0.467187,
2009-08-09, 03:32:05,VALID,998.026,VALID,0,VALID,85.2915,VALID,0,VALID,22.9208,VALID,224,VALID,0.363281,
2009-08-09, 03:33:05,VALID,998.031,VALID,0,VALID,85.1237,VALID,0,VALID,22.9598,VALID,224,VALID,0.265234,
2009-08-09, 03:34:05,VALID,998.02,VALID,0,VALID,85.1313,VALID,0,VALID,22.9793,VALID,256,VALID,0.363281,
2009-08-09, 03:35:05,VALID,998.015,VALID,0,VALID,85.0092,VALID,0,VALID,23.0006,VALID,256,VALID,0.273047,
2009-08-09, 03:36:05,VALID,998.053,VALID,0,VALID,85.0779,VALID,0,VALID,22.9988,VALID,270,VALID,0.6875,
2009-08-09, 03:37:05,VALID,998.069,VALID,0,VALID,84.9863,VALID,0,VALID,23.0183,VALID,293,VALID,0.736719,
2009-08-09, 03:38:05,VALID,998.038,VALID,0,VALID,85.0626,VALID,0,VALID,23.0183,VALID,316,VALID,0.938281,
2009-08-09, 03:39:05,VALID,998.093,VALID,0,VALID,85.0245,VALID,0,VALID,22.9988,VALID,321,VALID,0.724609,
2009-08-09, 03:40:05,VALID,998.101,VALID,0,VALID,85.0932,VALID,0,VALID,23.0006,VALID,321,VALID,0.357031,
2009-08-09, 03:41:05,VALID,998.094,VALID,0,VALID,84.9711,VALID,0,VALID,22.9403,VALID,321,VALID,0.403516,
2009-08-09, 03:42:05,VALID,998.103,VALID,0,VALID,85.0169,VALID,0,VALID,22.9208,VALID,321,VALID,0.228906,
2009-08-09, 03:43:05,VALID,998.108,VALID,0,VALID,85.0626,VALID,0,VALID,22.8818,VALID,321,VALID,0.301953,
2009-08-09, 03:44:05,VALID,998.098,VALID,0,VALID,85.1466,VALID,0,VALID,22.8623,VALID,333,VALID,0.411719,
2009-08-09, 03:45:05,VALID,998.133,VALID,0,VALID,85.2763,VALID,0,VALID,22.864,VALID,333,VALID,0.0574219,